Regional Weather Roundup
Issued by NWS Newport/Morehead, NC

Current Version | Previous Version | Text Only | Print | Product List | Glossary Off
Versions: 1 2 3 4 5 6 7 8 9 10 11 12 13 14 15 16 17 18 19 20 21 22 23 24 25 26 27 28 29 30 31 32 33 34 35 36 37 38 39 40 41 42 43 44 45 46 47 48 49 50
226 ASUS42 KMHX 121425 RWRMHX WEATHER ROUNDUP FOR EASTERN NORTH CAROLINA NATIONAL WEATHER SERVICE NEWPORT/MOREHEAD CITY NC 900 AM EST FRI FEB 12 2016 NOTE: "FAIR" INDICATES FEW OR NO CLOUDS BELOW 12,000 FEET WITH NO SIGNIFICANT WEATHER AND/OR OBSTRUCTIONS TO VISIBILITY NCZ015>017-031-032-045>047-102-103-121500- NORTH COAST CITY SKY/WX TMP DP RH WIND PRES REMARKS EDENTON CLOUDY 31 18 59 NE5 30.30S ELIZABETH CITY CLOUDY 29 17 61 NE10 30.31F WCI 20 KITTY HAWK CLOUDY 33 19 57 CALM 30.27F MANTEO CLOUDY 33 21 62 NE10 30.29F $$ NCZ045>047-081-094-103-104-121500- CENTRAL COAST CITY SKY/WX TMP DP RH WIND PRES REMARKS FRISCO CLOUDY 37 23 56 E6 30.29R SWANQUARTER N/A 34 N/A N/A E7G13 30.27S $$ NCZ095-097-098-100-101-121500- SOUTHERN COAST CITY SKY/WX TMP DP RH WIND PRES REMARKS BEAUFORT CLOUDY 36 19 50 NE9G17 30.25F CEDAR ISLAND N/A 37 N/A N/A NE13G20 30.33S JACKSONVILLE CLOUDY 33 17 51 NE8 30.25F PINEY ISLAND CLOUDY N/A N/A N/A NE15 30.26F WILMINGTON LGT RAIN 33 26 75 NE9 30.22F $$ NCZ011>013-027>030-043-044-078>080-089-090>093-098-121500- COASTAL PLAIN CITY SKY/WX TMP DP RH WIND PRES REMARKS AHOSKIE PTSUNNY 27 12 53 NE6 30.31F CLINTON CLOUDY 32 15 49 NE5 30.24F ELIZABETHTOWN CLOUDY 33 12 43 NE5 30.22F GOLDSBORO CLOUDY 30 14 51 E9 30.23F GREENVILLE CLOUDY 30 18 59 E9 30.28F HAVELOCK CLOUDY 36 24 62 NE9 30.27F KENANSVILLE CLOUDY 32 14 48 E3 30.25F KINSTON PTSUNNY 30 18 59 NE9 30.27F NEW BERN CLOUDY 32 21 64 E8 30.28F RICHLANDS CLOUDY 30 16 55 NE10 30.24F ROCKY MOUNT CLOUDY 28 10 46 NE5 30.29F WASHINGTON MOSUNNY 30 19 62 E7 30.28F WHITEVILLE PTSUNNY 34 14 43 NE10 30.18F $$ AMZ130-135-150-152-154-156-158-170-250-252-270-ANZ085-086-088-633-658-670-121500- MARINE OBSERVATIONS STATION/POSITION TIME TEMP WIND PRES WAVE SWELL AIR SEA DIR/SP/G HT/PER HT/PER (UTC) (F) (DEG/KT/KT) (MB) (FT/S) (FT/S) CHESAPEAKE LIGHT 1400 27 20/ 5/ 7 1027.3 64 E VA BEACH 1350 31 50 340/ 6/ 8 1026.2 4/ 7 3/ 7 DUCK 1400 31 30/ 9/ 12 1025.4 2 E DUCK 1411 43 N/A 3/ 5 OREGON INLET 1400 33 40 20/ 9/ 13 1025.6 13E OREGON INLT 1400 45 N/A 4/ 7 HATTERAS CG 1400 37 45 50/ 9/ 11 1024.9 DIAMOND BUOY 1350 42 71 20/ 12/ 17 1024.9 3/ 9 3/ 9 CAPE LOOKOUT NOT AVBL BEAUFORT LAB 1400 36 44 40/ 7/ 12 1023.1 30 SE NEW RVR IN 1408 46 59 1021.9 30 SE NEW RVR IN 1325 59 N/A 4/ 5 27 SE WRIGHTSVLE 1408 44 62 70/ 19/ 25 1019.4 5 SE WRIGHTSVLE 1308 43 50 70/ 19/ 27 1023.1 225 S CAPE HAT 1350 60 68 180/ 16/ 19 N/A 4/ 8 3/ 8 41 SE CHARLESTON 1350 59 69 240/ 16/ 17 1020.1 4/ 6 2/ 8 $$

USA.gov is the U.S. government's official web portal to all federal, state and local government web resources and services.